sat.trackr.live / text

‹ back to catalog

STARLINK-31852

NORAD 59841 · 2024-097G

PAYLOAD ACTIVE UNKNOWN

§ Identity

Operator
Country
US
Launch date
2024-05-23
Launch site
AFETR
Launch vehicle
Mass (kg)
RCS (m²)

Purposes: comms

External: N2YO · Heavens-Above · Gunter

§ Orbital elements

Epoch: 2026-05-25T04:13:08.947200Z

Period
94.27 min
Inclination
43.0019°
Eccentricity
0.0001045
Mean motion
15.27578195 rev/d
Perigee alt
482.3 km
Apogee alt
483.8 km
Semi-major
6,861.2 km
B*
3.3722e-5
RAAN
194.6810°
Arg perigee
277.4618°
Mean anomaly
82.6115°
Rev number
11,370

§ Raw data

STARLINK-318521 59841U 24097G   26145.17579800  .00000666  00000+0  33722-4 0  99922 59841  43.0019 194.6810 0001045 277.4618  82.6115 15.27578195113705

JSON: /api/v1/satellites/59841 · /tle

For live sub-satellite position, see the globe view (requires WebGL).

§ Visibility from observer

Set your observer location to see the next 7 days of passes ≥ 10°. The values pass through the URL so the page stays shareable.

No JS? Fill the form by hand. The geolocation button needs JavaScript.